Flag for USA

Past Weather in Fort Worth, Texas, USA — Yesterday and Last 2 Weeks

Now
54 °F

Low clouds.


Feels Like: 50 °F
Forecast: 56 / 41 °F
Wind: 14 mph from Northeast

Location: Meacham International Airport
Current Time: Oct 25, 2020 at 11:48:02 pm
Latest Report: Oct 25, 2020 at 10:53 pm
Visibility: 10 mi
Pressure29.97 "Hg
Humidity: 100%
Dew Point: 54 °F
Location of Fort WorthLocation

Past Weather in Fort Worth — Graph

°F

Fort Worth Temperature Yesterday

Maximum temperature yesterday: 58 °F (at 3:53 pm)
Minimum temperature yesterday: 42 °F (at 7:53 am)
Average temperature yesterday: 51 °F

High & Low Weather Summary for the Past Weeks

 TemperatureHumidityPressure
High95 °F (Oct 11, 3:53 pm)100% (Oct 23, 7:34 am)30.38 "Hg (Oct 23, 7:34 am)
Low42 °F (Oct 24, 7:53 am)16% (Oct 12, 3:53 pm)29.67 "Hg (Oct 15, 3:53 am)
Average67 °F66%29.98 "Hg
* Reported Oct 10 9:53 pm — Oct 25 9:53 pm, Fort Worth. Weather by CustomWeather, © 2020

Note: Actual official high and low records may vary slightly from our data, if they occured in-between our weather recording intervals... More about our weather records

Fort Worth Weather History for the Previous 24 Hours

Scroll right to see more
 ConditionsComfort  
Time TempWeatherWind HumidityBarometerVisibility
9:53 pm
Sun, Oct 25
55 °FLow clouds.12 mph100%29.96 "Hg10 mi
8:53 pm56 °FLow clouds.14 mph100%29.96 "Hg7 mi
7:53 pm57 °FFog.10 mph100%29.96 "Hg4 mi
6:53 pm58 °FLight rain. Fog.9 mph100%29.92 "Hg2 mi
6:38 pm58 °FLight rain. Fog.9 mph100%29.92 "Hg2 mi
6:03 pm58 °FLight rain. Fog.9 mph100%29.90 "Hg2 mi
5:53 pm59 °FLight rain. Fog.10 mph100%29.89 "Hg2 mi
5:19 pm59 °FLight rain. Fog.8 mph100%29.89 "Hg1 mi
4:53 pm59 °FLight rain. Fog.8 mph100%29.88 "Hg1 mi
4:12 pm60 °FLight rain. Fog.9 mph100%29.88 "Hg1 mi
3:53 pm59 °FLight rain. Fog.9 mph100%29.88 "Hg1 mi
3:33 pm60 °FFog.8 mph96%29.87 "Hg2 mi
3:20 pm60 °FFog.10 mph96%29.87 "Hg2 mi
3:01 pm60 °FFog.8 mph96%29.88 "Hg2 mi
1:53 pm64 °FOvercast.10 mph78%29.89 "Hg10 mi
12:53 pm62 °FOvercast.9 mph80%29.93 "Hg10 mi
11:53 am60 °FOvercast.10 mph83%29.95 "Hg10 mi
10:53 am60 °FOvercast.13 mph80%29.96 "Hg9 mi
9:53 am54 °FLow clouds.10 mph100%29.96 "Hg7 mi
9:26 am53 °FFog.10 mph100%29.97 "Hg6 mi
8:53 am52 °FFog.9 mph100%29.95 "Hg5 mi
7:53 am51 °FLow clouds.8 mph100%29.94 "Hg7 mi
6:53 am50 °FPassing clouds.8 mph100%29.93 "Hg10 mi
6:24 am50 °FPassing clouds.9 mph100%29.93 "Hg10 mi
5:53 am50 °FClear.8 mph100%29.92 "Hg10 mi
4:53 am49 °FClear.7 mph100%29.91 "Hg10 mi
3:53 am50 °FClear.8 mph93%29.92 "Hg10 mi
2:53 am50 °FClear.6 mph86%29.94 "Hg10 mi
1:53 am51 °FClear.6 mph83%29.94 "Hg10 mi
12:53 am52 °FClear.5 mph77%29.95 "Hg10 mi
11:53 pm
Sat, Oct 24
53 °FClear.7 mph72%29.97 "Hg10 mi
Weather by CustomWeather, © 2020

See weather overview